Peoria, IL

4:02 AM CDT on October 21, 2019 (GMT -0500)
Greater Peoria Regional

Weather History for KPIA - August, 2019

Change the Weather History Date:

Saturday, August 31, 2019

  Actual Average Record
Temperature  
Mean Temperature 68 °F 72 °F  
Max Temperature 75 °F 82 °F 96 °F (1953)
Min Temperature 59 °F 61 °F 41 °F (1915)
Degree Days  
Heating Degree Days 0 0  
Month to date heating degree days 0 0  
Since 1 June heating degree days 5 24  
Since 1 July heating degree days 0 6  
Cooling Degree Days 2 7  
Month to date cooling degree days 270 276  
Year to date cooling degree days 982 907  
Since 1 June cooling degree days 901 826  
Growing Degree Days 18 (Base 50)    
Moisture  
Dew Point 55 °F    
Average Humidity 67    
Maximum Humidity 90    
Minimum Humidity 48    
Precipitation  
Precipitation 0.02 in 0.11 in 1.79 in (1938)
Month to date precipitation 3.84 3.24  
Year to date precipitation 33.52 24.95  
Snow  
Snow 0.00 in 0.00 in 0.00 in ()
Month to date snowfall 0.0 0.0  
Since 1 June snowfall 0.0 0.0  
Since 1 July snowfall 0.0 0.0  
Snow Depth 0.00 in    
Sea Level Pressure  
Sea Level Pressure 30.19 in    
Wind  
Wind Speed 8 mph ()    
Max Wind Speed 16 mph    
Max Gust Speed 22 mph    
Visibility 10.0 miles    
Events Rain    
T = Trace of Precipitation, MM = Missing Value Source: Averaged Metar Reports

Daily Weather History Graph

Daily Weather History Graph

Search for Another Location

Airport or City:

Astronomy

Aug. 31, 2019 Rise Set
Actual Time 6:24 AM CDT 7:32 PM CDT
Civil Twilight 5:56 AM CDT 8:00 PM CDT
Nautical Twilight 5:22 AM CDT 8:34 PM CDT
Astronomical Twilight 4:47 AM CDT 9:09 PM CDT
Moon 7:40 AM CDT (8/31) 8:45 PM CDT (8/31)
Length of Visible Light 14h 04m
Length of Day
13h 08m
New Moon, 3% of the Moon is Illuminated
Aug 31
New Moon
Sep 5
First Quarter
Sep 13
Full
Sep 21
Last Quarter
Sep 28
New

Hourly Weather History & Observations

Time (CDT) Temp. Dew Point Humidity Pressure Visibility Wind Dir Wind Speed Gust Speed Precip Events Conditions
12:54 AM 60.1 °F 53.1 °F 78% 30.21 in 10.0 mi NE 4.6 mph - N/A   Clear
1:54 AM 59.0 °F 51.1 °F 75% 30.22 in 10.0 mi NE 6.9 mph - N/A   Clear
2:54 AM 60.1 °F 51.1 °F 72% 30.21 in 10.0 mi ENE 10.4 mph - N/A   Clear
3:54 AM 61.0 °F 50.0 °F 67% 30.21 in 10.0 mi NE 8.1 mph - N/A   Clear
4:54 AM 62.1 °F 48.0 °F 60% 30.22 in 10.0 mi East 9.2 mph - N/A   Clear
5:54 AM 62.1 °F 46.9 °F 58% 30.22 in 10.0 mi ENE 12.7 mph - N/A   Scattered Clouds
6:54 AM 62.1 °F 44.1 °F 52% 30.22 in 10.0 mi ENE 11.5 mph - N/A   Overcast
7:54 AM 63.0 °F 43.0 °F 48% 30.22 in 10.0 mi ENE 10.4 mph - N/A   Overcast
8:54 AM 64.0 °F 48.0 °F 56% 30.22 in 10.0 mi East 12.7 mph - N/A   Mostly Cloudy
9:54 AM 66.9 °F 51.1 °F 57% 30.22 in 10.0 mi ENE 11.5 mph - N/A   Overcast
10:54 AM 68.0 °F 55.0 °F 63% 30.22 in 10.0 mi ENE 11.5 mph - N/A   Overcast
11:54 AM 70.0 °F 57.0 °F 63% 30.22 in 10.0 mi ENE 10.4 mph - N/A   Overcast
12:54 PM 75.0 °F 59.0 °F 57% 30.20 in 10.0 mi East 10.4 mph - N/A   Overcast
1:54 PM 73.9 °F 60.1 °F 62% 30.19 in 10.0 mi ENE 9.2 mph - N/A   Overcast
2:54 PM 75.0 °F 61.0 °F 62% 30.17 in 10.0 mi ENE 9.2 mph - N/A   Overcast
3:54 PM 75.0 °F 60.1 °F 60% 30.16 in 10.0 mi East 11.5 mph - N/A   Overcast
4:54 PM 73.0 °F 60.1 °F 64% 30.16 in 10.0 mi ENE 12.7 mph - N/A   Overcast
5:54 PM 72.0 °F 60.1 °F 66% 30.15 in 10.0 mi NE 9.2 mph - N/A   Overcast
6:54 PM 71.1 °F 59.0 °F 66% 30.14 in 10.0 mi NE 10.4 mph - N/A   Overcast
7:54 PM 70.0 °F 59.0 °F 68% 30.13 in 10.0 mi ENE 9.2 mph - N/A   Mostly Cloudy
8:54 PM 70.0 °F 60.1 °F 71% 30.14 in 10.0 mi NE 5.8 mph - 0.00 in Rain Light Rain
9:54 PM 66.0 °F 62.1 °F 87% 30.15 in 10.0 mi NE 8.1 mph - 0.02 in Rain Light Rain
10:54 PM 64.9 °F 62.1 °F 90% 30.14 in 10.0 mi ENE 10.4 mph - 0.00 in   Scattered Clouds
11:10 PM 64.9 °F 61.0 °F 87% 30.15 in 10.0 mi ENE 11.5 mph - N/A   Mostly Cloudy
11:54 PM 64.9 °F 61.0 °F 87% 30.15 in 10.0 mi NNE 3.5 mph - N/A   Overcast